Regional Weather Roundup
Issued by NWS

Home | Current Version | Previous Version | Text Only | Print | Product List | Glossary On
Versions: 1 2 3 4 5 6 7 8 9 10 11 12 13 14 15 16 17 18 19 20 21 22 23 24 25 26 27 28 29 30 31 32 33 34 35 36 37 38 39 40 41 42 43 44 45 46 47 48 49 50
000
ASUS44 KMEG 282110
RWRTN
TENNESSEE HOURLY STATE WEATHER ROUNDUP
NATIONAL WEATHER SERVICE MEMPHIS TN
300 PM CST SUN DEC 28 2014

TNZ002-004-019-021-049-052-054-088>092-282200-
WEST TENNESSEE

CITY           SKY/WX    TMP DP  RH WIND       PRES   REMARKS
MEMPHIS INTL   CLOUDY    41  36  82 N7        30.17R
NWS MEMPHIS      N/A     40 N/A N/A MISG        N/A
JACKSON        LGT RAIN  40  37  89 N6        30.16S FOG
DYERSBURG      CLOUDY    37  25  60 N6        30.20R WCI  33
UNION CITY     CLOUDY    34  34 100 N6        30.18R WCI  29
PARIS          CLOUDY    34  34 100 N7        30.17R WCI  28
HUNTINGDON     CLOUDY    35  34  96 N3        30.17R
LEXINGTON      CLOUDY    39  37  93 N5        30.14R
SAVANNAH       CLOUDY    39  39 100 N6        30.15R WCI  35
$$

TNZ008-025-027-028-033-062-065-066-282200-
NORTH MIDDLE TENNESSEE

CITY           SKY/WX    TMP DP  RH WIND       PRES   REMARKS
NASHVILLE      LGT RAIN  40  38  93 N3        30.15R
CLARKSVILLE    CLOUDY    37  35  92 N8        30.16R FOG     WCI  31
SMYRNA         LGT RAIN  41  39  92 N8        30.16R FOG
COOKEVILLE     CLOUDY    43  43 100 N5        30.09S
CROSSVILLE     CLOUDY    47  44  90 NW6       30.08R FOG
$$

TNZ061-075-076-078-094-096-097-282200-
SOUTH MIDDLE TENNESSEE

CITY           SKY/WX    TMP DP  RH WIND       PRES   REMARKS
FAYETTEVILLE   CLOUDY    41  39  93 N9        30.12R
TULLAHOMA      CLOUDY    39  39 100 NW9       30.12R VSB 1/2 WCI  33
WINCHESTER     CLOUDY    45  45 100 N8        30.11R
MCMINNVILLE    CLOUDY    43  43 100 CALM      30.12R
COLUMBIA       CLOUDY   N/A N/A N/A N5        30.12R
SHELBYVILLE    CLOUDY    43  43 100 N8        30.13R
$$

TNZ017-018-042-046-047-282200-
NORTHEAST TENNESSEE

CITY           SKY/WX    TMP DP  RH WIND       PRES   REMARKS
TRI CITIES     LGT RAIN  49  47  93 CALM      30.06F FOG
ELIZABETHTON   CLOUDY    45  45 100 CALM      30.06S FOG
$$

TNZ012-013-036-069-073-074-282200-
CENTRAL EAST TENNESSEE

CITY           SKY/WX    TMP DP  RH WIND       PRES   REMARKS
KNOXVILLE      FOG       51  50  96 N5        30.05S VSB 1/2
OAK RIDGE      CLOUDY    52  50  93 NE3       30.07R
GATLINBURG     CLOUDY    48  48 100 N5        30.05R
MORRISTOWN     CLOUDY    48  48 100 CALM      30.06S
$$

TNZ083-085-099-282200-
SOUTHEAST TENNESSEE

CITY           SKY/WX    TMP DP  RH WIND       PRES   REMARKS
CHATTANOOGA    CLOUDY    58  55  90 E3        30.04R
$$

SKY/WX REPORTED AS FAIR MEANS FEW OR NO CLOUDS BELOW
12 THOUSAND FEET.




USA.gov is the U.S. government's official web portal to all federal, state and local government web resources and services.